Regional Weather Roundup
Issued by NWS

Home | Current Version | Previous Version | Graphics & Text | Print | Product List | Glossary On
Versions: 1 2 3 4 5 6 7 8 9 10 11 12 13 14 15 16 17 18 19 20 21 22 23 24 25 26 27 28 29 30 31 32 33 34 35 36 37 38 39 40 41 42 43 44 45 46 47 48 49 50
868
ASUS43 KLSX 281959
RWRMO

WEATHER SUMMARY FOR MISSOURI
NATIONAL WEATHER SERVICE SPRINGFIELD MO
300 PM CDT TUE MAR 28 2017

NOTE: "FAIR" INDICATES FEW OR NO CLOUDS BELOW 12,000 FEET WITH NO
       SIGNIFICANT WEATHER AND/OR OBSTRUCTIONS TO VISIBILITY.
       CURRENT SKY AND/OR WEATHER CONDITIONS ARE NOT AVAILABLE FOR
       CHILLICOTHE AND FARMINGTON.

MOZ001>031-035>038-043-044-053-054-282100-
...NORTHERN AND WESTERN MISSOURI...

CITY           SKY/WX    TMP DP  RH WIND       PRES   REMARKS
KANSAS CTY INT CLOUDY    54  49  83 E9        30.03F
KANSAS C DTWN  CLOUDY    55  50  83 E10       30.02F
LEE`S SUMMIT   CLOUDY    53  51  93 E10       30.02F
ST JOSEPH      CLOUDY    54  48  80 E10       30.05F
CHILLICOTHE      N/A     54  49  83 E7        30.07F
KIRKSVILLE     CLOUDY    53  48  83 NE8       30.08F

$$
MOZ066>068-077>081-088>096-101>105-282100-
...SOUTHWEST MISSOURI...

CITY           SKY/WX    TMP DP  RH WIND       PRES   REMARKS
SPRINGFIELD    MOSUNNY   63  49  60 E9G16     29.97F
JOPLIN         PTSUNNY   61  51  70 E12       29.94F
BRANSON        MOSUNNY   66  52  59 E10       29.98F

$$
MOZ032>034-039>042-045>050-055>058-069>072-282100-
...CENTRAL MISSOURI...

CITY           SKY/WX    TMP DP  RH WIND       PRES   REMARKS
COLUMBIA       CLOUDY    57  51  80 E5        30.05F
JEFFERSON CITY CLOUDY    59  50  72 E6        30.05F
ROLLA          CLOUDY    57  50  77 SE9       30.03F
SEDALIA        CLOUDY    56  51  84 E9        30.04F
WARRENSBURG    CLOUDY    54  50  87 E8        30.03F FOG
OSAGE BEACH    CLOUDY    59  50  72 E8        30.03F

$$
MOZ051-052-059>065-282100-
...EAST CENTRAL MISSOURI...

CITY           SKY/WX    TMP DP  RH WIND       PRES   REMARKS
ST LOUIS INTL  CLOUDY    58  48  69 NE5       30.08F
SPIRIT OF STL  CLOUDY    57  50  77 E7        30.07F
ST CHARLES     CLOUDY    58  49  72 NE3       30.07F

$$
MOZ072>076-082>087-097>100-106>115-282100-
...SOUTH CENTRAL AND SOUTHEAST MISSOURI...

CITY           SKY/WX    TMP DP  RH WIND       PRES   REMARKS
CAPE GIRARDEAU CLOUDY    60  51  72 N8        30.06F
FARMINGTON     CLOUDY    56  50  80 VRB5      30.07F
POPLAR BLUFF   CLOUDY    62  53  72 E7        30.04F
WEST PLAINS    CLOUDY    64  50  60 CALM      30.02F

$$




USA.gov is the U.S. government's official web portal to all federal, state and local government web resources and services.